Flag for Canada Weather past 2 weeks in Kings County, Nova Scotia, Canada

Now
64 °F

Passing clouds.


Feels Like: 64 °F
Forecast: 53 / 70 °F
Wind: 13 mph from Northeast

Location: Shearwater

Current Time: Sep 4, 2015 at 11:56:47 AM

Latest Report: Sep 4, 2015 at 11:00 AM


Visibility: 15 mi

Pressure: 30.14 "Hg

Humidity: 60%

Dew point: 50 °F

Location of Kings CountyLocation

Historic Weather in Kings County — Graph

°F

Kings County temperature yesterday

Maximum temperature yesterday: 81 °F (at 5:00 PM)
Minimum temperature yesterday: 63 °F (at 11:00 PM)
Average temperature yesterday: 73 °F

Past Weeks' High & Low Weather Summary

 TemperatureHumidityPressure
High81 °F (Aug 25, 2:00 PM)100% (Aug 20, 10:00 AM)30.25 "Hg (Aug 20, 10:00 AM)
Low52 °F (Sep 4, 7:00 AM)54% (Sep 3, 6:00 PM)29.71 "Hg (Aug 31, 7:00 PM)
Average69 °F84%29.96 "Hg
* Reported Aug 20 10:00 AM — Sep 4 10:00 AM, Kings County, Weather by CustomWeather, © 2015

Note: Actual official high and low records may vary slightly from our data, if they occured in-between our weather recording intervals... More about our weather records

Advertising

Kings County weather history for previous 24 hours

 ConditionsComfort  
Time TempWeatherWind HumidityBarometerVisibility
10:00 AM
Fri, Sep 4
63 °FPassing clouds.12 mph64%30.14 "Hg15 mi
9:00 AM61 °FPassing clouds.9 mph72%30.12 "Hg15 mi
8:00 AM55 °FPassing clouds.5 mph88%30.10 "Hg15 mi
7:00 AM52 °FPassing clouds.5 mph94%30.07 "Hg15 mi
12:53 AM59 °FPassing clouds.6 mph72%29.98 "Hg15 mi
12:00 AM61 °FPassing clouds.6 mph72%29.96 "Hg15 mi
11:00 PM
Thu, Sep 3
63 °FPassing clouds.12 mph77%29.95 "Hg15 mi
10:00 PM64 °FPassing clouds.9 mph78%29.93 "Hg15 mi
9:00 PM68 °FPassing clouds.9 mph73%29.88 "Hg15 mi
8:00 PM72 °FPassing clouds.14 mph69%29.84 "Hg15 mi
7:00 PM75 °FPassing clouds.9 mph69%29.81 "Hg15 mi
6:00 PM81 °FPassing clouds.12 mph54%29.79 "Hg15 mi
5:00 PM81 °FScattered clouds.7 mph58%29.78 "Hg15 mi
4:00 PM77 °FThunderstorms. Scattered clouds.6 mph79%29.78 "Hg12 mi
3:00 PM79 °FPartly sunny.2 mph74%29.77 "Hg12 mi
2:00 PM79 °FPartly sunny.6 mph79%29.77 "Hg15 mi
1:00 PM79 °FThunderstorms. Scattered clouds.10 mph70%29.78 "Hg12 mi
12:00 PM79 °FPassing clouds.3 mph74%29.78 "Hg15 mi
11:00 AM77 °FScattered clouds.6 mph69%29.79 "Hg15 mi
Weather by CustomWeather, © 2015

See weather overviewHow to use our weather pages